Location: Castillon
(43.0896°N, 0.2156°E)
Time: 20:29:31
(UTC+00:00)

Meteor 1-21 Rocket - Pass Details

Date: 16 June 2021
Orbit: 834 x 906 km, 81.2° (Epoch: 23 July)

Event Time Altitude Azimuth Distance (km) Brightness Sun altitude
Exits shadow 23:39:34 54° 192° (SSW) 1,022 4.2 -23.4°
Maximum altitude 23:40:55 88° 281° (W) 860 4.1 -23.4°
Drops below altitude 10° 23:46:38 10° 10° (N) 2,516 7.7 -23.5°
Sets 23:49:06 0° 11° (N) 3,469 8.7 -23.5°
